Location: Zagreb
(45.8000°N, 16.0000°E)
Time: 12:34:37
(UTC+01:00)

Transit 2A Rocket - Pass Details

Date: 07 October 2020
Orbit: 586 x 916 km, 66.7° (Epoch: 28 October)

Event Time Altitude Azimuth Distance (km) Brightness Sun altitude
Enters shadow 01:08:09 - 322° (NW) 3,405 8.7 -49.4°
Rises 01:08:14 0° 322° (NW) 3,377 - -49.4°
Reaches altitude 10° 01:10:53 10° 316° (NW) 2,388 - -49.4°
Maximum altitude 01:16:00 42° 247° (WSW) 1,058 - -49.2°
Drops below altitude 10° 01:20:39 10° 177° (S) 2,163 - -49.0°
Sets 01:22:57 0° 170° (S) 3,025 - -48.9°
